Monterey, CA

4:54 AM PDT on April 23, 2018 (GMT -0700)
Monterey Peninsula

Weather History for KMRY - July, 2013

Change the Weather History Date:

Monday, July 22, 2013

  Actual Average Record
Temperature  
Mean Temperature 65 °F 60 °F  
Max Temperature 73 °F 67 °F 86 °F (2006)
Min Temperature 56 °F 54 °F 49 °F (2002)
Degree Days  
Heating Degree Days 0    
Month to date heating degree days 88  
Since 1 June heating degree days 216  
Since 1 July heating degree days 88  
Cooling Degree Days 0    
Month to date cooling degree days 5  
Year to date cooling degree days 21  
Since 1 June cooling degree days 14  
Growing Degree Days 14 (Base 50)    
Moisture  
Dew Point 55 °F    
Average Humidity 77    
Maximum Humidity 93    
Minimum Humidity 61    
Precipitation  
Precipitation 0.00 in - 0.03 in (1999)
Month to date precipitation 0.00  
Year to date precipitation 3.15  
Since 1 July precipitation 0.00  
Sea Level Pressure  
Sea Level Pressure 29.99 in    
Wind  
Wind Speed 4 mph (WNW)    
Max Wind Speed 15 mph    
Max Gust Speed 18 mph    
Visibility 7 miles    
Events Fog    
T = Trace of Precipitation, MM = Missing Value Source: NWS Daily Summary

Daily Weather History Graph

Daily Weather History Graph

Search for Another Location

Airport or City:

Astronomy

Jul. 22, 2013 Rise Set
Actual Time 6:05 AM PDT 8:21 PM PDT
Civil Twilight 5:36 AM PDT 8:50 PM PDT
Nautical Twilight 5:00 AM PDT 9:26 PM PDT
Astronomical Twilight 4:21 AM PDT 10:05 PM PDT
Moon 8:14 PM PDT (7/22) 6:06 AM PDT (7/22)
Length of Visible Light 15h 13m
Length of Day
14h 15m
Full, 100% of the Moon is Illuminated
Jul 22
Full
Jul 29
Last Quarter
Aug 6
New
Aug 14
First Quarter
Aug 20
Full

Hourly Weather History & Observations

Time (PDT) Temp. Dew Point Humidity Pressure Visibility Wind Dir Wind Speed Gust Speed Precip Events Conditions
12:54 AM 57.0 °F 53.1 °F 87% 29.99 in 10.0 mi NE 4.6 mph - N/A   Overcast
1:54 AM 57.0 °F 54.0 °F 89% 29.96 in 10.0 mi Calm Calm - N/A   Overcast
2:54 AM 57.0 °F 53.1 °F 87% 29.96 in 10.0 mi ENE 3.5 mph - N/A   Overcast
3:54 AM 57.0 °F 54.0 °F 89% 29.94 in 9.0 mi Calm Calm - N/A   Overcast
4:54 AM 55.9 °F 53.1 °F 90% 29.97 in 10.0 mi ENE 4.6 mph - N/A   Overcast
5:54 AM 55.9 °F 54.0 °F 93% 29.99 in 10.0 mi Calm Calm - N/A   Overcast
6:54 AM 57.0 °F 54.0 °F 89% 29.99 in 8.0 mi Calm Calm - N/A   Overcast
7:15 AM 57.2 °F 53.6 °F 88% 29.95 in 10.0 mi Calm Calm - N/A   Overcast
7:54 AM 57.9 °F 54.0 °F 87% 30.00 in 10.0 mi SE 3.5 mph - N/A   Mostly Cloudy
8:06 AM 59.0 °F 53.6 °F 82% 29.96 in 10.0 mi Calm Calm - N/A   Scattered Clouds
8:54 AM 62.1 °F 55.0 °F 78% 30.00 in 10.0 mi Calm Calm - N/A   Clear
9:54 AM 62.1 °F 55.0 °F 78% 30.00 in 10.0 mi WNW 4.6 mph - N/A   Clear
10:54 AM 64.0 °F 55.0 °F 73% 30.00 in 10.0 mi NNW 3.5 mph - N/A   Clear
11:54 AM 66.9 °F 57.0 °F 70% 30.01 in 10.0 mi Variable 3.5 mph - N/A   Clear
12:54 PM 66.9 °F 57.0 °F 70% 30.00 in 10.0 mi NNW 4.6 mph - N/A   Partly Cloudy
1:54 PM 69.1 °F 57.0 °F 65% 30.00 in 10.0 mi West 6.9 mph - N/A   Clear
2:54 PM 72.0 °F 57.0 °F 59% 29.99 in 10.0 mi WSW 5.8 mph - N/A   Clear
3:54 PM 69.1 °F 57.0 °F 65% 29.99 in 10.0 mi WSW 9.2 mph - N/A   Clear
4:54 PM 64.0 °F 57.0 °F 78% 30.00 in 10.0 mi SW 11.5 mph - N/A   Clear
5:34 PM 62.6 °F 57.2 °F 82% 29.96 in 10.0 mi West 9.2 mph - N/A   Scattered Clouds
5:46 PM 62.6 °F 57.2 °F 82% 29.96 in 10.0 mi WSW 8.1 mph - N/A   Mostly Cloudy
5:54 PM 62.1 °F 57.0 °F 84% 30.00 in 10.0 mi West 6.9 mph - N/A   Overcast
6:39 PM 59.0 °F 55.4 °F 88% 29.98 in 1.8 mi NW 6.9 mph - N/A   Overcast
6:47 PM 59.0 °F 55.4 °F 88% 29.98 in 0.8 mi NW 6.9 mph - N/A   Overcast
6:54 PM 59.0 °F 57.0 °F 93% 30.02 in 0.8 mi WNW 8.1 mph - N/A   Overcast
7:08 PM 57.2 °F 55.4 °F 94% 29.98 in 0.2 mi NW 6.9 mph - N/A Fog Fog
7:23 PM 57.2 °F 55.4 °F 94% 29.97 in 0.5 mi NW 3.5 mph - N/A Fog Fog
7:54 PM 57.9 °F 55.9 °F 93% 30.02 in 0.5 mi NNW 5.8 mph - N/A Fog Fog
8:01 PM 57.2 °F 55.4 °F 94% 29.98 in 0.2 mi North 3.5 mph - N/A Fog Fog
8:09 PM 57.2 °F 55.4 °F 94% 29.98 in 0.5 mi NW 3.5 mph - N/A Fog Fog
8:22 PM 57.2 °F 57.2 °F 100% 29.98 in 1.0 mi Calm Calm - N/A   Overcast
8:54 PM 57.9 °F 55.9 °F 93% 30.01 in 1.8 mi Calm Calm - N/A   Overcast
9:11 PM 57.2 °F 55.4 °F 94% 29.97 in 2.0 mi Calm Calm - N/A   Overcast
9:22 PM 57.2 °F 55.4 °F 94% 29.98 in 4.0 mi Calm Calm - N/A   Overcast
9:54 PM 57.9 °F 57.0 °F 97% 30.02 in 7.0 mi Calm Calm - N/A   Overcast
10:54 PM 59.0 °F 55.9 °F 90% 30.01 in 9.0 mi Calm Calm - N/A   Mostly Cloudy
11:54 PM 57.9 °F 55.9 °F 93% 30.02 in 6.0 mi WSW 3.5 mph - N/A   Overcast